International Virtual Aviation Organisation

Eastern Europe and Northern Asia MCD

 

Карточка аэропорта UHSS

Внимание!
Информация на этой странице в стадии наполнения.
Если вы не увидели какой-то информации, или заметили неточность - пожалуйста сообщите нам!
Спасибо!
Команда RU-STAFF
Название аэропортаХомутово
Название аэропорта (англ.)Khomutovo
Превышение59 ft. (18 m.)
Координаты46°53.316', 142°43.020000000001'
Высота перехода1600
Эшелон переходаFL080
Коды ответчика6601-6627
Зона ОрВДХабаровск РПИ (UHHH)
Данные METARUHSS 101030Z 18002MPS 9999 NSC 01/M05 Q1026 R01/70D NOSIG RMK QFE768/1024
Проноз погоды (TAF)UHSS 100750Z 1009/1115 27003MPS 9999 NSC BECMG 1012/1015 18003MPS
NOTAMshow/hide NOTAM
AWOS   TABLE

Информация о ВПП

ВПП Длина ВПП (м.) Покрытие Курс ВПП Частота ILS
013401Железобетон12109.5
193401Железобетон192111.7

Диспетчерские позиции

Позывной Наименование органа УВД Частота
UHSS_R_APPЮжно-Сахалинск−Круг120.6
UHSS_TWRЮжно-Сахалинск−Старт122.0



Спутниковое изображение